TimeEDT,TemperatureF,Dew PointF,Humidity,Sea Level PressureIn,VisibilityMPH,Wind Direction,Wind SpeedMPH,Gust SpeedMPH,PrecipitationIn,Events,Conditions,WindDirDegrees,DateUTC
12:54 AM,30.9,25.0,79,29.96,10.0,Calm,Calm,-,N/A,,Overcast,0,2013-03-17 04:54:00
1:54 AM,30.9,25.0,79,29.96,10.0,Calm,Calm,-,N/A,,Overcast,0,2013-03-17 05:54:00
2:54 AM,30.9,24.1,76,29.98,10.0,Calm,Calm,-,N/A,,Overcast,0,2013-03-17 06:54:00
3:54 AM,30.0,24.1,79,29.99,10.0,Calm,Calm,-,N/A,,Overcast,0,2013-03-17 07:54:00
4:54 AM,30.0,23.0,75,30.00,10.0,NNW,5.8,-,N/A,,Overcast,340,2013-03-17 08:54:00
5:54 AM,30.0,19.0,64,30.04,10.0,WNW,4.6,-,N/A,,Overcast,300,2013-03-17 09:54:00
6:54 AM,28.9,19.0,67,30.09,10.0,NW,3.5,-,N/A,,Overcast,320,2013-03-17 10:54:00
7:54 AM,28.0,17.1,63,30.10,10.0,West,4.6,-,N/A,,Overcast,280,2013-03-17 11:54:00
8:54 AM,28.9,16.0,58,30.14,10.0,NW,8.1,-,N/A,,Overcast,320,2013-03-17 12:54:00
9:54 AM,30.0,18.0,61,30.17,10.0,WNW,10.4,-,N/A,,Overcast,290,2013-03-17 13:54:00
10:54 AM,32.0,17.1,54,30.16,10.0,North,4.6,-,N/A,,Overcast,360,2013-03-17 14:54:00
11:54 AM,33.1,17.1,52,30.17,10.0,Calm,Calm,-,N/A,,Overcast,0,2013-03-17 15:54:00
12:54 PM,34.0,17.1,50,30.19,10.0,Variable,3.5,-,N/A,,Overcast,0,2013-03-17 16:54:00
1:54 PM,35.1,16.0,46,30.18,10.0,NNW,9.2,-,N/A,,Overcast,340,2013-03-17 17:54:00
2:54 PM,36.0,17.1,46,30.17,10.0,NNW,8.1,-,N/A,,Overcast,330,2013-03-17 18:54:00
3:54 PM,37.0,18.0,46,30.17,10.0,NNE,9.2,-,N/A,,Mostly Cloudy,20,2013-03-17 19:54:00
4:54 PM,37.0,16.0,42,30.18,10.0,NNW,8.1,-,N/A,,Clear,330,2013-03-17 20:54:00
5:54 PM,36.0,14.0,41,30.20,10.0,Calm,Calm,-,N/A,,Clear,0,2013-03-17 21:54:00
6:54 PM,35.1,15.1,44,30.22,10.0,ENE,3.5,-,N/A,,Clear,70,2013-03-17 22:54:00
7:54 PM,33.1,15.1,48,30.24,10.0,Calm,Calm,-,N/A,,Clear,0,2013-03-17 23:54:00
8:54 PM,30.9,21.0,67,30.27,10.0,Calm,Calm,-,N/A,,Clear,0,2013-03-18 00:54:00
9:54 PM,28.9,18.0,64,30.29,10.0,Calm,Calm,-,N/A,,Clear,0,2013-03-18 01:54:00
10:54 PM,28.0,17.1,63,30.30,10.0,Calm,Calm,-,N/A,,Clear,0,2013-03-18 02:54:00
11:54 PM,27.0,16.0,63,30.31,10.0,Calm,Calm,-,N/A,,Clear,0,2013-03-18 03:54:00